Location: Asheville, NC
(35.6000°N, 82.5500°W)
Time: 05:21:05
(UTC-05:00)

Vanguard 3 - Pass Details

Date: 13 February 2018
Orbit: 508 x 3264 km, 33.3° (Epoch: 17 February)

Event Time Altitude Azimuth Distance (km) Brightness Sun altitude
Rises 17:08:11 0° 226° (SW) 2,735 11.4 11.0°
Reaches altitude 10° 17:10:47 10° 211° (SSW) 1,733 10.0 10.5°
Maximum altitude 17:13:47 23° 157° (SSE) 1,104 8.0 9.9°
Drops below altitude 10° 17:16:52 10° 102° (ESE) 1,799 8.5 9.4°
Sets 17:19:38 0° 88° (E) 2,870 9.4 8.9°
